マクノート彗星

C/2011 Q2 ( McNaught )

English version
Home page
Updated on April 28, 2012

---------------------------------------------------------------------

・ プロフィール

発見日 2011年8月26日
発見光度 14.5等
発見者 Robert H. McNaught (Siding Spring)

・ 写真集

・ 軌道要素

Epoch 2012 Feb. 3.0 TT = JDT 2455960.5
T 2012 Jan. 19.79186 TT                                 MPC
q   1.3495393            (2000.0)            P               Q
z  -0.0000235      Peri.   34.63180     +0.67955664     +0.45860773
 +/-0.0000202      Node   287.36913     -0.73160033     +0.48155846
e   1.0000317      Incl.   36.86755     +0.05444007     +0.74684697
From 102 observations 2011 Aug. 26-2012 Apr. 1, mean residual 0".4.

・ 星図

・ 光度変化

        m1 = 8.7 + 5 logΔ + 10.0 log r

---------------------------------------------------------------------

軌道要素はM.P.E.C. 2012-G18に掲載されたものです。
星図はステラナビゲータ Ver.8 (アストロアーツ) で作成したものです。
光度グラフはComet for Windowsで作成したものです。

---------------------------------------------------------------------

Copyright(C) Seiichi Yoshida (comet@aerith.net). All rights reserved.